Regional Weather Roundup
Issued by NWS

Home | Current Version | Previous Version | Text Only | Print | Product List | Glossary Off
Versions: 1 2 3 4 5 6 7 8 9 10 11 12 13 14 15 16 17 18 19 20 21 22 23 24 25 26 27 28 29 30 31 32 33 34 35 36 37 38 39 40 41 42 43 44 45 46 47 48 49 50

000
ASUS43 KBIS 251210
RWRND

NORTH DAKOTA REGIONAL WEATHER ROUNDUP
NATIONAL WEATHER SERVICE BISMARCK ND
700 AM CDT THU AUG 25 2016

NOTE: "FAIR" INDICATES FEW OR NO CLOUDS BELOW 12,000 FEET WITH NO
SIGNIFICANT WEATHER AND/OR OBSTRUCTIONS TO VISIBILITY.


NDZ001>003-009>011-017-251300-
NORTHWEST NORTH DAKOTA

CITY           SKY/WX    TMP DP  RH WIND       PRES   REMARKS
WILLISTON      CLOUDY    54  46  74 NW10      30.18S
6HR MIN TEMP:  53; 6HR MAX TEMP:  55; 6HR PCP:  0.01;

MINOT          CLOUDY    54  51  90 NW17      30.10R
MINOT AFB      CLOUDY    53  50  92 NW14      30.09R
$$

NDZ018>021-031>035-040>046-251300-
SOUTHWEST NORTH DAKOTA

CITY           SKY/WX    TMP DP  RH WIND       PRES   REMARKS
BISMARCK       LGT RAIN  56  49  77 NW12      30.12R
6HR MIN TEMP:  56; 6HR MAX TEMP:  58; 6HR PCP: TRACE;

DICKINSON      CLOUDY    49  45  86 W10       30.16R
GARRISON         N/A     52  51  97 NW14      30.11R
6HR MIN TEMP:  52; 6HR MAX TEMP:  54;

HETTINGER ARPT CLEAR     45  42  89 W9        30.20F
$$

NDZ004>008-012>016-024-026-027-054-251300-
NORTHEAST NORTH DAKOTA

CITY           SKY/WX    TMP DP  RH WIND       PRES   REMARKS
GRAND FORKS    CLOUDY    59  53  80 W14       29.92S
GRND FRKS AFB  CLOUDY    58  53  83 W14       29.93R
DEVILS LAKE    LGT RAIN  55  54  96 NW14      30.00R FOG
$$

NDZ022-023-025-028>030-036>039-047>053-251300-
SOUTHEAST NORTH DAKOTA

CITY           SKY/WX    TMP DP  RH WIND       PRES   REMARKS
FARGO          CLOUDY    57  52  83 SW10      29.99S
6HR MIN TEMP:  55; 6HR MAX TEMP:  61;

JAMESTOWN      CLOUDY    56  51  84 W12       30.04R
$$




USA.gov is the U.S. government's official web portal to all federal, state and local government web resources and services.